Location: Long Island Community Building
(39.9491°N, 99.5338°W)
Time: 11:26:19
(UTC+00:00)

Cosmos 1869 Rocket - Pass Details

Date: 06 December 2019
Orbit: 606 x 632 km, 82.5° (Epoch: 19 January)

Event Time Altitude Azimuth Distance (km) Brightness Sun altitude
Rises 13:06:48 0° 209° (SSW) 2,848 6.9 -7.4°
Reaches altitude 10° 13:09:11 10° 219° (SW) 1,949 6.0 -7.0°
Maximum altitude 13:13:03 32° 283° (WNW) 1,042 4.2 -6.3°
Drops below altitude 10° 13:16:58 10° 348° (NNW) 1,965 5.8 -5.7°
Sets 13:19:24 0° 358° (N) 2,877 6.7 -5.2°
